Weather History for Tampa Macdill AFB, FL

Change the Weather History Date:

Thursday, December 12, 2013

  Actual Average Record
Temperature  
Mean Temperature 63 °F -  
Max Temperature 74 °F 70 °F 86 °F (1998)
Min Temperature 52 °F 53 °F 44 °F (2004)
Degree Days  
Heating Degree Days 2    
Growing Degree Days 13 (Base 50)    
Moisture  
Dew Point 56 °F    
Average Humidity 82    
Maximum Humidity 100    
Minimum Humidity 27    
Precipitation  
Precipitation 0.00 in - - ()
Sea Level Pressure  
Sea Level Pressure 30.26 in    
Wind  
Wind Speed 7 mph (NE)    
Max Wind Speed 15 mph    
Max Gust Speed 21 mph    
Visibility 10 miles    
Events      
Averages and records for this station are not official NWS values.
T = Trace of Precipitation, MM = Missing Value Source: NWS Daily Summary

Daily Weather History Graph

Daily Weather History Graph

Search for Another Location

Airport:

Trip Planner

Search our weather history database for the weather conditions in past years. The results will help you decide how hot, cold, wet, or windy it might be!

Date:

Astronomy

Dec. 12, 2013 Rise Set
Actual Time 7:11 AM EST 5:36 PM EST
Civil Twilight 6:46 AM EST 6:01 PM EST
Nautical Twilight 6:16 AM EST 6:30 PM EST
Astronomical Twilight 5:48 AM EST 6:59 PM EST
Moon 2:26 PM EST (12/12) 2:51 AM EST (12/12)
Length of Visible Light 11h 15m
Length of Day
10h 24m
Waxing Gibbous, 80% of the Moon is Illuminated
Dec 12
Waxing Gibbous
Dec 17
Full
Dec 25
Last Quarter
Jan 1
New
Jan 7
First Quarter

Hourly Weather History & Observations

Time (EST) Temp. Dew Point Humidity Pressure Visibility Wind Dir Wind Speed Gust Speed Precip Events Conditions
12:58 AM 64.9 °F 64.4 °F 98% 30.23 in 10.0 mi NNE 4.6 mph - N/A   Clear
1:58 AM 63.9 °F 63.5 °F 99% 30.22 in 10.0 mi NNE 4.6 mph - N/A   Clear
2:58 AM 63.3 °F 63.0 °F 99% 30.22 in 10.0 mi NNE 5.8 mph - N/A   Partly Cloudy
3:08 AM 62.6 °F 62.6 °F 100% 30.21 in 10.0 mi NE 8.1 mph - N/A   Mostly Cloudy
3:13 AM 62.6 °F 62.6 °F 100% 30.20 in 10.0 mi NE 5.8 mph - N/A   Mostly Cloudy
3:48 AM 64.4 °F 62.6 °F 94% 30.21 in 10.0 mi NNE 4.6 mph - N/A   Overcast
3:58 AM 63.7 °F 63.3 °F 99% 30.21 in 10.0 mi NNE 4.6 mph - N/A   Overcast
4:03 AM 64.4 °F 62.6 °F 94% 30.21 in 10.0 mi NNE 5.8 mph - N/A   Overcast
4:08 AM 64.4 °F 62.6 °F 94% 30.22 in 10.0 mi North 6.9 mph - N/A   Overcast
4:18 AM 64.4 °F 64.4 °F 100% 30.22 in 10.0 mi NNE 6.9 mph - N/A   Overcast
4:33 AM 62.6 °F 62.6 °F 100% 30.22 in 10.0 mi NNE 8.1 mph - N/A   Overcast
4:58 AM 63.1 °F 63.1 °F 100% 30.23 in 9.0 mi NNE 9.2 mph - N/A   Overcast
5:13 AM 62.6 °F 62.6 °F 100% 30.22 in 8.0 mi NNE 8.1 mph - N/A   Overcast
5:48 AM 62.6 °F 62.6 °F 100% 30.23 in 6.0 mi NE 5.8 mph - N/A   Overcast
5:53 AM 62.6 °F 62.6 °F 100% 30.23 in 8.0 mi NE 5.8 mph - N/A   Overcast
5:58 AM 62.1 °F 62.1 °F 100% 30.24 in 10.0 mi NNE 5.8 mph - N/A   Overcast
6:13 AM 62.6 °F 62.6 °F 100% 30.23 in 10.0 mi NE 5.8 mph - N/A   Overcast
6:33 AM 62.6 °F 62.6 °F 100% 30.23 in 10.0 mi NE 5.8 mph - N/A   Overcast
6:43 AM 62.6 °F 62.6 °F 100% 30.24 in 10.0 mi NE 6.9 mph - N/A   Overcast
6:58 AM 62.6 °F 62.6 °F 100% 30.26 in 10.0 mi NE 9.2 mph - N/A   Overcast
7:28 AM 62.6 °F 62.6 °F 100% 30.25 in 10.0 mi NNE 5.8 mph - N/A   Overcast
7:48 AM 62.6 °F 62.6 °F 100% 30.26 in 10.0 mi NNE 5.8 mph - N/A   Overcast
7:58 AM 62.6 °F 62.6 °F 100% 30.28 in 10.0 mi ENE 6.9 mph - N/A   Overcast
8:58 AM 63.5 °F 63.5 °F 100% 30.31 in 10.0 mi North 6.9 mph - N/A   Overcast
9:03 AM 64.4 °F 64.4 °F 100% 30.31 in 10.0 mi NNE 8.1 mph - N/A   Overcast
9:23 AM 64.4 °F 64.4 °F 100% 30.31 in 10.0 mi NE 10.4 mph - N/A   Mostly Cloudy
9:58 AM 63.9 °F 61.5 °F 92% 30.33 in 10.0 mi NNE 11.5 mph 19.6 mph N/A   Overcast
10:03 AM 62.6 °F 60.8 °F 94% 30.33 in 10.0 mi NNE 12.7 mph 18.4 mph N/A   Overcast
10:58 AM 62.4 °F 60.4 °F 93% 30.33 in 10.0 mi ENE 9.2 mph - N/A   Overcast
11:03 AM 62.6 °F 60.8 °F 94% 30.31 in 10.0 mi NE 10.4 mph - N/A   Overcast
11:08 AM 62.6 °F 60.8 °F 94% 30.31 in 10.0 mi NE 11.5 mph 17.3 mph N/A   Overcast
11:28 AM 64.4 °F 60.8 °F 88% 30.30 in 10.0 mi ENE 13.8 mph - N/A   Scattered Clouds
11:58 AM 68.5 °F 60.1 °F 74% 30.30 in 10.0 mi ENE 9.2 mph - N/A   Clear
12:58 PM 73.0 °F 58.3 °F 60% 30.26 in 10.0 mi NE 10.4 mph - N/A   Clear
1:55 PM 73.4 °F 50.0 °F 44% 30.23 in 10.0 mi ENE 15.0 mph 20.7 mph N/A   Clear
1:58 PM 74.1 °F 50.0 °F 43% 30.24 in 10.0 mi ENE 13.8 mph 20.7 mph N/A   Clear
2:58 PM 74.1 °F 44.2 °F 34% 30.23 in 10.0 mi NE 12.7 mph - N/A   Clear
3:58 PM 73.2 °F 39.9 °F 30% 30.22 in 10.0 mi NE 10.4 mph - N/A   Clear
4:58 PM 70.5 °F 34.5 °F 27% 30.24 in 10.0 mi NE 9.2 mph - N/A   Clear
5:58 PM 64.0 °F 36.3 °F 36% 30.26 in 10.0 mi NE 6.9 mph - N/A   Clear
6:58 PM 61.2 °F 37.4 °F 41% 30.28 in 10.0 mi NE 5.8 mph - N/A   Clear
7:58 PM 59.5 °F 35.4 °F 41% 30.30 in 10.0 mi NE 9.2 mph - N/A   Clear
8:58 PM 58.8 °F 33.3 °F 38% 30.32 in 10.0 mi ENE 12.7 mph - N/A   Clear
9:58 PM 53.6 °F 36.7 °F 53% 30.32 in 10.0 mi ENE 10.4 mph - N/A   Clear
10:58 PM 52.7 °F 37.4 °F 56% 30.32 in 10.0 mi ENE 11.5 mph - N/A   Clear
11:58 PM 52.0 °F 40.6 °F 65% 30.31 in 10.0 mi East 13.8 mph - N/A   Clear